Location: Unspecified
(0.0000°N, 0.0000°E)
Time: 01:17:14
(UTC+00:00)

Orbcomm F1 (FM01) - Pass Details

Date: 18 May 2026
Orbit: 578 x 582 km, 70.0° (Epoch: 10 June)

Event Time Altitude Azimuth Distance (km) Brightness Sun altitude
Exits shadow 04:09:53 - 161° (SSE) 2,800 10.4 -25.0°
Rises 04:09:53 0° 161° (SSE) 2,797 10.4 -25.0°
Reaches altitude 10° 04:13:36 10° 127° (SE) 1,896 9.9 -24.1°
Maximum altitude 04:15:02 12° 107° (ESE) 1,797 10.1 -23.8°
Drops below altitude 10° 04:16:29 10° 87° (E) 1,894 10.5 -23.5°
Sets 04:20:10 0° 54° (NE) 2,789 11.7 -22.6°
